Location: Musselshell
(46.5176°N, 108.0911°W)
Time: 03:48:08
(UTC+00:00)

YUBILEINY - Pass Details

Date: 01 July 2022
Orbit: 1478 x 1509 km, 82.5° (Epoch: 07 August)

Event Time Altitude Azimuth Distance (km) Brightness Sun altitude
Rises 09:41:14 0° 354° (N) 4,655 ? -13.1°
Reaches altitude 10° 09:44:56 10° 8° (N) 3,666 ? -12.7°
Maximum altitude 09:51:53 25° 60° (ENE) 2,668 ? -12.0°
Drops below altitude 10° 09:58:44 10° 113° (ESE) 3,634 ? -11.3°
Sets 10:02:21 0° 126° (SE) 4,605 ? -10.9°
